Regional Weather Roundup
Issued by NWS Binghamton, NY

Home | Current Version | Previous Version | Text Only | Print | Product List | Glossary On
Versions: 1 2 3 4 5 6 7 8 9 10 11 12 13 14 15 16 17 18 19 20 21 22 23 24 25 26 27 28 29 30 31 32 33 34 35 36 37 38 39 40 41 42 43 44 45 46 47 48 49 50
000
ASUS41 KBGM 231210
RWRBGM
RWRBGM
BINGHAMTON REGIONAL WEATHER ROUNDUP
NATIONAL WEATHER SERVICE BINGHAMTON NY
800 AM EDT TUE SEP 23 2014

Note: "fair" indicates few or no clouds below 12,000 feet with no
significant weather and/or obstructions to visibility.

* = Station(s) that does not report precipitation, such as rain,
snow, etc, also no thunder or fog.

!NYZ009-015>018-022>025-036-037-044>046-055>057-062-231300
...CENTRAL NEW YORK...

CITY           SKY/WX    TMP DP  RH WIND       PRES   REMARKS
BINGHAMTON     SUNNY     42  40  92 SW3       30.29R
CORTLAND       FAIR      41  41 100 CALM      30.31R
DANSVILLE      SUNNY     44  41  89 SE9       30.32R
ELMIRA         FOG       41  40  96 CALM      30.31R VSB 1/8
ITHACA         SUNNY     43  42  96 CALM      30.31R
HAMILTON       SUNNY     43  39  87 CALM      30.29R
MONTICELLO     CLOUDY    39  37  93 CALM      30.30R
NORWICH        MOSUNNY   39  39 100 CALM      30.31R
ONEONTA        MOSUNNY   43  41  93 CALM      30.28R
PENN YAN       SUNNY     47  44  90 SW9       30.29R
ROME           CLOUDY    42  42 100 CALM      30.29S
SIDNEY         FOG       39  39 100 CALM      30.31R VSB 0
SYRACUSE       PTSUNNY   50  43  77 SW3       30.28R
$$

!PAZ038>040-043-044-047-048-072-231300
...NORTHEAST PENNSYLVANIA...

CITY           SKY/WX    TMP DP  RH WIND       PRES   REMARKS
HAZLETON       SUNNY     46  39  76 CALM      30.33R
SCRANTON       SUNNY     44  40  85 CALM      30.31R
TOWANDA*       SUNNY     43  41  93 S3        30.33R
$$
&&
KEY
WCI = WIND CHILL INDEX
VSB = VISIBILITY
HX  = HEAT INDEX
$$


USA.gov is the U.S. government's official web portal to all federal, state and local government web resources and services.